Location: Grossmotten
(48.5500°N, 15.3833°E)
Time: 19:15:13
(UTC+00:00)

Cosmos 2322 Rocket - Pass Details

Date: 15 November 2019
Orbit: 833 x 851 km, 71.0° (Epoch: 06 December)

Event Time Altitude Azimuth Distance (km) Brightness Sun altitude
Exits shadow 05:29:10 - 323° (NW) 3,164 4.7 -6.4°
Reaches altitude 10° 05:31:10 10° 316° (NW) 2,469 4.1 -6.1°
Maximum altitude 05:36:07 32° 255° (WSW) 1,416 3.0 -5.3°
Drops below altitude 10° 05:41:03 10° 194° (SSW) 2,464 4.8 -4.5°
Sets 05:43:43 0° 184° (S) 3,397 5.6 -4.1°
